Weather History for KGEV - December, 2008

Change the Weather History Date:

Tuesday, December 2, 2008

  Actual Average Record
Temperature  
Mean Temperature 29 °F -  
Max Temperature 30 °F 48 °F 86 °F (2003)
Min Temperature 28 °F 25 °F 15 °F (1971)
Degree Days  
Heating Degree Days 36    
Moisture  
Dew Point 21 °F    
Average Humidity 72    
Maximum Humidity 80    
Minimum Humidity 64    
Precipitation  
Precipitation 0.00 in - - ()
Sea Level Pressure  
Sea Level Pressure 30.04 in    
Wind  
Wind Speed 9 mph (West)    
Max Wind Speed 17 mph    
Max Gust Speed 25 mph    
Visibility 9 miles    
Events Snow    
Averages and records for this station are not official NWS values.
T = Trace of Precipitation, MM = Missing Value Source: NWS Daily Summary

Daily Weather History Graph

Daily Weather History Graph

Search for Another Location

Airport or City:

Trip Planner

Search our weather history database for the weather conditions in past years. The results will help you decide how hot, cold, wet, or windy it might be!

Date:

Astronomy

Dec. 02, 2008 Rise Set
Actual Time 7:20 AM EST 5:10 PM EST
Civil Twilight 6:51 AM EST 5:38 PM EST
Nautical Twilight 6:19 AM EST 6:10 PM EST
Astronomical Twilight 5:48 AM EST 6:41 PM EST
Moon 11:08 AM EST (12/2) 9:29 PM EST (12/2)
Length of Visible Light 10h 46m
Length of Day
9h 50m
Waxing Crescent, 21% of the Moon is Illuminated
Dec 2
Waxing Crescent
Dec 5
First Quarter
Dec 12
Full
Dec 19
Last Quarter
Dec 27
New

Hourly Weather History & Observations

Time (EST) Temp. Windchill Dew Point Humidity Pressure Visibility Wind Dir Wind Speed Gust Speed Precip Events Conditions
12:03 AM 28.4 °F 21.2 °F 21.2 °F 74% 29.93 in 10.0 mi West 6.9 mph 16.1 mph N/A   Overcast
12:23 AM 28.4 °F 23.3 °F 21.2 °F 74% 29.94 in 10.0 mi West 4.6 mph - N/A   Overcast
12:43 AM 28.4 °F 23.3 °F 21.2 °F 74% 29.94 in 10.0 mi West 4.6 mph - N/A   Overcast
1:02 AM 28.4 °F 22.2 °F 19.4 °F 69% 29.94 in 10.0 mi West 5.8 mph - N/A Snow Light Snow
1:23 AM 28.4 °F 20.4 °F 21.2 °F 74% 29.95 in 10.0 mi West 8.1 mph - N/A Snow Light Snow
2:03 AM 28.4 °F 19.7 °F 21.2 °F 74% 29.96 in 10.0 mi West 9.2 mph - N/A Snow Light Snow
2:23 AM 28.4 °F 20.4 °F 21.2 °F 74% 29.96 in 10.0 mi West 8.1 mph 17.3 mph N/A Snow Light Snow
2:43 AM 28.4 °F 19.7 °F 21.2 °F 74% 29.96 in 10.0 mi West 9.2 mph - N/A Snow Light Snow
3:03 AM 28.4 °F 19.7 °F 21.2 °F 74% 29.96 in 10.0 mi WNW 9.2 mph - N/A Snow Light Snow
3:23 AM 28.4 °F 18.5 °F 21.2 °F 74% 29.96 in 10.0 mi West 11.5 mph 16.1 mph N/A   Overcast
3:42 AM 28.4 °F 19.7 °F 23.0 °F 80% 29.97 in 7.0 mi West 9.2 mph - N/A Snow Light Snow
4:02 AM 28.4 °F 20.4 °F 23.0 °F 80% 29.97 in 10.0 mi WNW 8.1 mph - N/A   Overcast
4:22 AM 28.4 °F 17.5 °F 23.0 °F 80% 29.97 in 10.0 mi WNW 13.8 mph 18.4 mph N/A Snow Light Snow
4:42 AM 28.4 °F 20.4 °F 23.0 °F 80% 29.98 in 10.0 mi NW 8.1 mph - N/A Snow Light Snow
5:02 AM 28.4 °F 18.5 °F 21.2 °F 74% 29.98 in 10.0 mi WNW 11.5 mph 17.3 mph N/A   Overcast
5:22 AM 28.4 °F 20.4 °F 21.2 °F 74% 29.98 in 10.0 mi WNW 8.1 mph 20.7 mph N/A   Overcast
5:42 AM 28.4 °F 18.0 °F 21.2 °F 74% 29.99 in 10.0 mi WNW 12.7 mph 23.0 mph N/A   Overcast
6:02 AM 28.4 °F 17.0 °F 21.2 °F 74% 29.99 in 10.0 mi West 15.0 mph 20.7 mph N/A   Overcast
6:22 AM 28.4 °F 17.5 °F 21.2 °F 74% 29.99 in 10.0 mi WNW 13.8 mph 25.3 mph N/A   Overcast
6:42 AM 28.4 °F 17.0 °F 21.2 °F 74% 29.99 in 10.0 mi West 15.0 mph 21.9 mph N/A Snow Light Snow
7:02 AM 28.4 °F 19.1 °F 21.2 °F 74% 29.99 in 10.0 mi NW 10.4 mph 19.6 mph N/A Snow Light Snow
7:24 AM 28.4 °F 21.2 °F 21.2 °F 74% 30.00 in 10.0 mi NNW 6.9 mph 17.3 mph N/A   Overcast
7:42 AM 28.4 °F 19.1 °F 21.2 °F 74% 30.00 in 10.0 mi WNW 10.4 mph 19.6 mph N/A   Overcast
8:02 AM 28.4 °F 19.1 °F 21.2 °F 74% 30.00 in 10.0 mi NW 10.4 mph 25.3 mph N/A   Overcast
8:22 AM 28.4 °F 18.5 °F 21.2 °F 74% 30.01 in 10.0 mi West 11.5 mph 17.3 mph N/A   Overcast
8:42 AM 28.4 °F 20.4 °F 21.2 °F 74% 30.03 in 10.0 mi West 8.1 mph 16.1 mph N/A Snow Light Snow
9:02 AM 28.4 °F 18.5 °F 21.2 °F 74% 30.04 in 7.0 mi WNW 11.5 mph 21.9 mph N/A Snow Light Snow
9:22 AM 28.4 °F 16.6 °F 21.2 °F 74% 30.04 in 5.0 mi West 16.1 mph 23.0 mph N/A Snow Light Snow
9:42 AM 28.4 °F 18.5 °F 21.2 °F 74% 30.05 in 4.0 mi WNW 11.5 mph 19.6 mph N/A Snow Light Snow
10:02 AM 28.4 °F 19.7 °F 23.0 °F 80% 30.06 in 2.5 mi WNW 9.2 mph 21.9 mph N/A Snow Light Snow
10:22 AM 28.4 °F 18.0 °F 21.2 °F 74% 30.07 in 7.0 mi West 12.7 mph - N/A Snow Light Snow
11:02 AM 28.4 °F 24.6 °F 21.2 °F 74% 30.09 in 5.0 mi West 3.5 mph - N/A Snow Light Snow
11:22 AM 30.2 °F 24.3 °F 21.2 °F 69% 30.09 in 10.0 mi West 5.8 mph - N/A   Overcast
11:42 AM 30.2 °F 24.3 °F 23.0 °F 75% 30.08 in 10.0 mi West 5.8 mph - N/A   Overcast
12:02 PM 30.2 °F 23.4 °F 21.2 °F 69% 30.08 in 10.0 mi West 6.9 mph - N/A   Overcast
12:22 PM 30.2 °F 23.4 °F 21.2 °F 69% 30.07 in 10.0 mi West 6.9 mph - N/A   Overcast
12:42 PM 30.2 °F 20.2 °F 21.2 °F 69% 30.08 in 10.0 mi West 12.7 mph 17.3 mph N/A   Overcast
1:02 PM 30.2 °F 20.2 °F 21.2 °F 69% 30.07 in 10.0 mi West 12.7 mph - N/A   Overcast
1:22 PM 30.2 °F 23.4 °F 19.4 °F 64% 30.07 in 10.0 mi West 6.9 mph 18.4 mph N/A   Overcast
1:43 PM 30.2 °F 20.8 °F 21.2 °F 69% 30.08 in 10.0 mi West 11.5 mph 16.1 mph N/A   Overcast
2:02 PM 30.2 °F 22.6 °F 21.2 °F 69% 30.08 in 10.0 mi WSW 8.1 mph 16.1 mph N/A   Overcast
2:23 PM 30.2 °F 22.6 °F 21.2 °F 69% 30.08 in 10.0 mi West 8.1 mph - N/A   Overcast
2:43 PM 30.2 °F 23.4 °F 23.0 °F 75% 30.08 in 10.0 mi West 6.9 mph 18.4 mph N/A   Overcast
3:02 PM 30.2 °F 21.3 °F 21.2 °F 69% 30.09 in 10.0 mi West 10.4 mph - N/A   Overcast
3:22 PM 30.2 °F 22.6 °F 21.2 °F 69% 30.09 in 10.0 mi West 8.1 mph - N/A   Overcast
3:42 PM 30.2 °F 22.6 °F 21.2 °F 69% 30.09 in 10.0 mi West 8.1 mph - N/A   Overcast
4:03 PM 30.2 °F 20.2 °F 21.2 °F 69% 30.10 in 10.0 mi West 12.7 mph 19.6 mph N/A   Overcast
4:24 PM 30.2 °F 21.3 °F 19.4 °F 64% 30.10 in 10.0 mi West 10.4 mph - N/A   Overcast
4:43 PM 30.2 °F 21.3 °F 21.2 °F 69% 30.11 in 10.0 mi West 10.4 mph 16.1 mph N/A   Overcast
5:03 PM 30.2 °F 21.3 °F 21.2 °F 69% 30.11 in 10.0 mi West 10.4 mph 16.1 mph N/A   Overcast
5:23 PM 28.4 °F 19.1 °F 19.4 °F 69% 30.11 in 10.0 mi West 10.4 mph - N/A   Mostly Cloudy
5:42 PM 28.4 °F 19.7 °F 19.4 °F 69% 30.12 in 10.0 mi West 9.2 mph 17.3 mph N/A   Scattered Clouds
6:04 PM 28.4 °F 17.5 °F 19.4 °F 69% 30.12 in 10.0 mi West 13.8 mph - N/A   Scattered Clouds
6:22 PM 28.4 °F 16.2 °F 19.4 °F 69% 30.12 in 10.0 mi West 17.3 mph 21.9 mph N/A   Clear
6:43 PM 28.4 °F 17.5 °F 19.4 °F 69% 30.13 in 10.0 mi West 13.8 mph 17.3 mph N/A   Clear
7:03 PM 28.4 °F 18.5 °F 21.2 °F 74% 30.14 in 10.0 mi West 11.5 mph - N/A   Clear
7:23 PM 28.4 °F 21.2 °F 19.4 °F 69% 30.15 in 10.0 mi West 6.9 mph - N/A   Clear
7:43 PM 28.4 °F 21.2 °F 19.4 °F 69% 30.15 in 10.0 mi West 6.9 mph - N/A   Clear
8:03 PM 26.6 °F 21.2 °F 17.6 °F 69% 30.15 in 10.0 mi West 4.6 mph - N/A   Clear
8:23 PM 28.4 °F 22.2 °F 19.4 °F 69% 30.15 in 10.0 mi West 5.8 mph - N/A   Clear
8:43 PM 26.6 °F - 17.6 °F 69% 30.15 in 10.0 mi Calm Calm - N/A   Clear
9:03 PM 24.8 °F - 17.6 °F 74% 30.16 in 10.0 mi Calm Calm - N/A   Clear
9:22 PM 26.6 °F - 17.6 °F 69% 30.16 in 10.0 mi Calm Calm - N/A   Clear
9:43 PM 26.6 °F - 17.6 °F 69% 30.16 in 10.0 mi Calm Calm - N/A   Clear
10:03 PM 24.8 °F - 17.6 °F 74% 30.16 in 10.0 mi Calm Calm - N/A   Clear
10:22 PM 23.0 °F - 17.6 °F 80% 30.16 in 10.0 mi Calm Calm - N/A   Clear
10:44 PM 24.8 °F 20.5 °F 17.6 °F 74% 30.16 in 10.0 mi ESE 3.5 mph - N/A   Clear
11:05 PM 23.0 °F - 17.6 °F 80% 30.16 in 10.0 mi Calm Calm - N/A   Clear
11:22 PM 23.0 °F - 17.6 °F 80% 30.16 in 10.0 mi Calm Calm - N/A   Clear
11:42 PM 23.0 °F - 17.6 °F 80% 30.16 in 10.0 mi Calm Calm - N/A   Clear